Home   Weather   Paphos   Past weeks

Flag for Cyprus Past Weather in Paphos, Cyprus — Yesterday and Last 2 Weeks

Now
66 °F

Sunny.


Feels Like: 66 °F
Forecast: 57 / 74 °F
Wind: 9 mph from Southeast

Location: Paphos Airport

Current Time: Apr 25, 2017 at 10:12:28 am

Latest Report: Apr 25, 2017 at 9:30 am


Visibility: 10 mi

Pressure: 30.12 "Hg

Humidity: 68%

Dew Point: 55 °F

Location of PaphosLocation

Past Weather in Paphos — Graph

°F

Paphos Temperature Yesterday

Maximum temperature yesterday: 70 °F (at 12:00 pm)
Minimum temperature yesterday: 48 °F (at 4:00 am)
Average temperature yesterday: 61 °F

High & Low Weather Summary for the Past Weeks

 TemperatureHumidityPressure
High81 °F (Apr 12, 11:00 am)94% (Apr 14, 2:00 am)30.12 "Hg (Apr 14, 2:00 am)
Low48 °F (Apr 24, 4:00 am)45% (Apr 21, 12:30 pm)29.62 "Hg (Apr 13, 4:00 am)
Average64 °F70%29.95 "Hg
* Reported Apr 10 9:00 am — Apr 25 9:00 am, Paphos, Weather by CustomWeather, © 2017

Note: Actual official high and low records may vary slightly from our data, if they occured in-between our weather recording intervals... More about our weather records

Advertising

Paphos Weather History for the Previous 24 Hours

Scroll right to see more
 ConditionsComfort  
Time TempWeatherWind HumidityBarometerVisibility
9:00 am
Tue, Apr 25
66 °FPassing clouds.8 mph64%30.09 "HgN/A
8:30 am66 °FPassing clouds.5 mph60%30.09 "HgN/A
8:00 am63 °FSunny.5 mph52%30.09 "Hg10 mi
7:30 am57 °FSunny.7 mph59%30.09 "Hg10 mi
7:00 am54 °FSunny.9 mph63%30.09 "Hg10 mi
6:30 am50 °FSunny.9 mph67%30.07 "Hg10 mi
6:00 am52 °FClear.5 mph62%30.07 "Hg10 mi
5:30 am54 °FCool.3 mph58%30.07 "HgN/A
5:00 am54 °FCool.6 mph67%30.07 "HgN/A
4:00 am54 °FCool.9 mph72%30.07 "HgN/A
3:30 am52 °FCool.3 mph77%30.07 "HgN/A
3:00 am55 °FPassing clouds.3 mph72%30.07 "HgN/A
2:30 am54 °FPassing clouds.9 mph72%30.07 "HgN/A
2:00 am52 °FPassing clouds.10 mph77%30.07 "HgN/A
1:30 am52 °FPassing clouds.8 mph77%30.09 "HgN/A
1:00 am50 °FPassing clouds.3 mph82%30.09 "HgN/A
12:30 am50 °FPassing clouds.5 mph82%30.09 "HgN/A
12:00 am50 °FPassing clouds.7 mph82%30.09 "HgN/A
11:00 pm
Mon, Apr 24
55 °FPassing clouds.7 mph72%30.12 "HgN/A
10:30 pm55 °FPassing clouds.7 mph72%30.12 "HgN/A
10:00 pm57 °FPassing clouds.6 mph72%30.12 "HgN/A
9:30 pm57 °FPassing clouds.5 mph72%30.09 "HgN/A
9:00 pm57 °FPassing clouds.6 mph72%30.09 "HgN/A
8:30 pm59 °FPassing clouds.6 mph72%30.09 "HgN/A
8:00 pm61 °FPassing clouds.7 mph68%30.07 "HgN/A
7:30 pm63 °FPassing clouds.10 mph64%30.07 "HgN/A
7:00 pm64 °FPassing clouds.12 mph60%30.07 "HgN/A
6:30 pm64 °FPassing clouds.14 mph64%30.07 "HgN/A
6:00 pm66 °FPassing clouds.14 mph56%30.07 "HgN/A
5:30 pm66 °FPassing clouds.16 mph60%30.07 "HgN/A
5:00 pm68 °FPassing clouds.16 mph56%30.07 "HgN/A
4:30 pm68 °FPassing clouds.17 mph56%30.07 "HgN/A
4:00 pm68 °FPassing clouds.18 mph56%30.07 "HgN/A
3:30 pm68 °FPassing clouds.20 mph56%30.07 "HgN/A
3:00 pm68 °FPassing clouds.20 mph56%30.07 "HgN/A
2:30 pm68 °FPassing clouds.22 mph56%30.07 "HgN/A
2:00 pm68 °FPassing clouds.22 mph56%30.07 "HgN/A
1:30 pm68 °FPassing clouds.23 mph53%30.07 "HgN/A
1:00 pm70 °FPassing clouds.22 mph53%30.07 "HgN/A
12:30 pm70 °FPassing clouds.22 mph53%30.09 "HgN/A
12:00 pm70 °FPassing clouds.20 mph50%30.09 "HgN/A
11:30 am68 °FPassing clouds.18 mph53%30.09 "HgN/A
11:00 am68 °FPassing clouds.18 mph56%30.09 "HgN/A
10:30 am68 °FPassing clouds.16 mph53%30.07 "HgN/A
10:00 am66 °FPassing clouds.14 mph56%30.07 "HgN/A
Weather by CustomWeather, © 2017

See weather overviewHow to use our weather pages